KD8UYA Weather Reports


Display with metric or nautical units.
time (UTC)temp
F
wind
direction
speed
MPH
gust
MPH
rain 1hr
in
rain 24hr
in
rain mn
in
humidity
%
barometer
mb
20260509211542 69 265 7.0 19.0 0.00 0.56 0.23 61 1001.8
20260509210043 68 214 8.0 16.0 0.00 0.56 0.23 62 1002.2
20260509204542 68 298 5.0 15.0 0.00 0.61 0.23 64 1002.6
20260509203035 68 130 5.0 15.0 0.00 0.61 0.23 64 1002.6
20260509201533 68 291 6.0 15.0 0.00 0.61 0.23 65 1002.8
20260509200030 68 273 4.0 17.0 0.00 0.61 0.23 67 1003.1
20260509194530 67 267 6.0 15.0 0.00 0.61 0.23 64 1003.2
20260509193029 67 222 7.0 18.0 0.00 0.61 0.23 64 1003.6
20260509191537 66 253 6.0 16.0 0.00 0.61 0.23 66 1003.9
20260509190028 66 263 4.0 12.0 0.00 0.61 0.23 69 1004.1
20260509184531 65 257 6.0 14.0 0.00 0.61 0.23 67 1004.1
20260509183020 65 215 7.0 14.0 0.00 0.61 0.23 68 1004.3
20260509181518 64 262 8.0 17.0 0.00 0.61 0.23 67 1004.2
20260509180016 64 230 6.0 12.0 0.00 0.61 0.23 69 1004.0
20260509174520 64 285 3.0 16.0 0.00 0.61 0.23 71 1004.4
20260509173008 63 271 6.0 16.0 0.00 0.61 0.23 72 1004.4
20260509171507 63 244 4.0 14.0 0.00 0.61 0.23 72 1004.4
20260509170006 62 230 3.0 12.0 0.00 0.61 0.23 74 1004.3
20260509164501 61 216 4.0 11.0 0.00 0.61 0.23 74 1004.2
20260509163101 61 273 4.0 10.0 0.00 0.61 0.23 78 1004.5
20260509161555 59 196 3.0 9.0 0.00 0.61 0.23 78 1004.9
20260509160054 60 232 2.0 10.0 0.00 0.61 0.23 79 1004.9
20260509154552 59 289 4.0 10.0 0.00 0.61 0.23 82 1005.0
20260509153056 58 276 4.0 11.0 0.00 0.61 0.23 86 1004.8
20260509151546 57 246 4.0 11.0 0.00 0.61 0.23 89 1004.8
20260509150045 57 275 5.0 12.0 0.00 0.61 0.23 89 1004.9
20260509144544 56 267 2.0 8.0 0.00 0.61 0.23 92 1004.9
20260509143041 56 261 4.0 11.0 0.00 0.61 0.23 94 1004.8
20260509141537 54 288 1.0 5.0 0.00 0.61 0.23 96 1004.9
20260509140036 54 265 4.0 8.0 0.00 0.61 0.23 97 1004.9
20260509134535 54 288 4.0 9.0 0.00 0.61 0.23 97 1005.0
20260509133033 54 252 3.0 9.0 0.00 0.61 0.23 98 1005.0
20260509131533 53 290 3.0 7.0 0.00 0.61 0.23 98 1005.0
20260509130038 53 260 3.0 7.0 0.00 0.61 0.23 98 1005.0
20260509124538 53 262 1.0 6.0 0.00 0.61 0.23 98 1005.3
20260509123027 53 255 0.0 7.0 0.00 0.61 0.23 99 1005.4
20260509121527 52 272 2.0 7.0 0.00 0.61 0.23 98 1005.6
20260509120026 52 266 1.0 7.0 0.00 0.61 0.23 99 1005.4
20260509114522 52 252 1.0 7.0 0.00 0.61 0.23 99 1005.5
20260509113024 52 229 2.0 6.0 0.00 0.61 0.23 99 1005.4
20260509111521 51 266 1.0 6.0 0.00 0.61 0.23 98 1005.5
20260509110020 52 256 1.0 4.0 0.00 0.64 0.23 98 1005.3
20260509104519 51 220 1.0 4.0 0.00 0.64 0.23 98 1005.2
20260509103019 51 229 1.0 5.0 0.00 0.64 0.23 98 1005.1
20260509101523 51 228 1.0 5.0 0.00 0.64 0.23 98 1005.1
20260509100016 51 244 1.0 3.0 0.00 0.64 0.23 98 1005.2
20260509094515 51 212 1.0 3.0 0.00 0.64 0.23 98 1005.3
20260509093014 51 256 1.0 4.0 0.00 0.64 0.23 98 1005.5
20260509091512 51 246 1.0 7.0 0.00 0.64 0.23 98 1005.5
20260509090011 51 233 2.0 7.0 0.00 0.64 0.23 98 1005.7
20260509084510 51 239 1.0 4.0 0.00 0.64 0.23 98 1005.9
20260509083025 51 295 2.0 5.0 0.00 0.64 0.23 98 1005.9
20260509081510 51 261 1.0 7.0 0.00 0.64 0.23 98 1006.0
20260509080007 51 225 2.0 7.0 0.00 0.64 0.23 98 1005.9
20260509074504 51 207 1.0 3.0 0.02 0.64 0.23 98 1006.0
20260509073003 51 200 1.0 6.0 0.03 0.64 0.23 98 1005.9
20260509071502 51 277 1.0 7.0 0.05 0.64 0.23 98 1006.0
20260509070100 51 265 2.0 5.0 0.05 0.64 0.23 98 1006.1
20260509064602 51 252 2.0 11.0 0.04 0.62 0.21 98 1006.3
20260509063059 51 245 2.0 12.0 0.09 0.61 0.20 98 1006.4
20260509061554 51 279 1.0 5.0 0.10 0.59 0.18 98 1006.5
20260509060106 51 257 2.0 4.0 0.12 0.59 0.18 98 1006.8
20260509054551 51 234 2.0 8.0 0.13 0.57 0.17 97 1006.9
20260509053110 51 246 2.0 8.0 0.10 0.52 0.11 97 1007.1
20260509051551 51 248 1.0 5.0 0.08 0.49 0.08 97 1007.1
20260509050045 50 234 2.0 8.0 0.06 0.47 0.06 97 1007.1
20260509044604 50 225 1.0 7.0 0.05 0.45 0.04 97 1007.2
20260509043054 50 229 1.0 4.0 0.03 0.42 0.01 97 1007.3
20260509041539 50 227 1.0 6.0 0.02 0.41 0.00 97 1007.5
20260509040041 50 182 0.0 6.0 0.04 0.41 0.00 97 1007.8
20260509034540 50 188 2.0 7.0 0.03 0.40 0.40 97 1008.0
20260509033035 50 233 2.0 5.0 0.03 0.39 0.39 97 1008.1
20260509031551 50 254 0.0 5.0 0.03 0.39 0.39 97 1008.3
20260509030056 50 259 2.0 4.0 0.01 0.37 0.37 96 1008.5
20260509024539 50 189 2.0 7.0 0.01 0.37 0.37 96 1008.5
20260509023036 50 218 2.0 5.0 0.00 0.36 0.36 96 1008.5
20260509021538 50 229 1.0 8.0 0.00 0.36 0.36 97 1008.3
20260509020032 50 240 1.0 5.0 0.01 0.36 0.36 97 1008.4
20260509014531 50 255 1.0 3.0 0.02 0.36 0.36 97 1008.4
20260509013032 50 225 1.0 6.0 0.03 0.36 0.36 97 1008.3
20260509011531 50 182 0.0 7.0 0.04 0.36 0.36 97 1008.4
20260509010031 50 298 0.0 4.0 0.05 0.35 0.35 97 1008.3
20260509004541 50 265 0.0 5.0 0.05 0.34 0.34 97 1008.2
20260509003034 50 221 1.0 4.0 0.06 0.33 0.33 97 1008.2
20260509001531 50 263 1.0 5.0 0.08 0.32 0.32 97 1008.4
20260509000029 50 240 0.0 5.0 0.08 0.30 0.30 96 1008.4
20260508234528 50 236 0.0 4.0 0.08 0.28 0.28 96 1008.1
20260508233028 50 250 1.0 8.0 0.09 0.27 0.27 96 1008.2
20260508231527 50 259 0.0 0.0 0.10 0.24 0.24 96 1008.1
20260508230026 50 259 2.0 6.0 0.09 0.22 0.22 96 1008.1
20260508224528 50 190 2.0 4.0 0.11 0.21 0.21 95 1008.0
20260508223040 50 245 1.0 4.0 0.08 0.18 0.18 95 1008.4
20260508221525 50 245 1.0 4.0 0.05 0.14 0.14 95 1008.2
20260508220024 50 257 1.0 4.0 0.06 0.13 0.13 94 1008.1
20260508214524 50 241 0.0 3.0 0.05 0.10 0.10 94 1007.6
20260508213024 50 217 1.0 5.0 0.06 0.10 0.10 94 1007.8